Regional Weather Roundup
Issued by NWS

Home | Current Version | Previous Version | Text Only | Print | Product List | Glossary Off
Versions: 1 2 3 4 5 6 7 8 9 10 11 12 13 14 15 16 17 18 19 20 21 22 23 24 25 26 27 28 29 30 31 32 33 34 35 36 37 38 39 40 41 42 43 44 45 46 47 48 49 50

000
ASUS43 KMKX 190310
RWRWI

WISCONSIN REGIONAL WEATHER ROUNDUP
NATIONAL WEATHER SERVICE MILWAUKEE/SULLIVAN WI
900 PM CST SUN FEB 18 2018

NOTE: "FAIR" INDICATES FEW OR NO CLOUDS BELOW 12,000 FEET WITH NO
SIGNIFICANT WEATHER AND/OR OBSTRUCTIONS TO VISIBILITY.

WIZ001-002-006>008-014>016-023>028-190400-
NORTHWEST WISCONSIN

CITY           SKY/WX    TMP DP  RH WIND       PRES   REMARKS
SUPERIOR ARPT  LGT SNOW  25  23  93 NE9G17    29.83R WCI  15
ASHLAND        LGT SNOW  24  23  96 N12       29.79R VSB 1   WCI  13
HAYWARD        CLOUDY    29  22  75 N10       29.73R WCI  20
SIREN          CLOUDY    26  22  84 N9        29.75R WCI  17
CUMBERLAND     CLOUDY    36  28  75 S10       29.70R WCI  28
RICE LAKE      CLOUDY    37  27  69 E5        29.72R WCI  33
CHETEK         CLOUDY    36  26  68 SE5       29.72R WCI  32
LADYSMITH      CLOUDY    36  24  63 S6        29.74R WCI  31
EAU CLAIRE     CLOUDY    37  28  70 S7        29.71R WCI  32
MENOMONIE      CLOUDY    39  28  64 S5        29.71R
NEW RICHMOND   FAIR      34  27  75 CALM      29.70R
OSCEOLA        FAIR      37  29  75 CALM      29.72R
$$

WIZ003>005-009-010-017-018-190400-
NORTH CENTRAL WISCONSIN

CITY           SKY/WX    TMP DP  RH WIND       PRES   REMARKS
MANITOWISH WTR CLOUDY    32  23  69 S7        29.72R WCI  26
ARBOR VITAE    CLOUDY    34  25  70 S13       29.73R WCI  25
WOODRUFF       CLOUDY    34  25  70 S13       29.73R WCI  25
RHINELANDER    CLOUDY    32  23  69 SW12      29.75R WCI  23
EAGLE RIVER    CLOUDY    32  21  63 S6        29.74R WCI  26
LAND O LAKES   CLOUDY    33  22  65 S8        29.75R WCI  25
PHILLIPS       CLOUDY    33  24  69 S10G16    29.72R WCI  25
TOMAHAWK       CLOUDY    32  23  70 S5        29.75R WCI  27
MEDFORD        CLOUDY    32  24  73 S16       29.73S WCI  21
MERRILL        CLOUDY    32  24  71 S6        29.78R WCI  26
$$

WIZ029-030-035-036-043>047-190400-
CENTRAL WISCONSIN

CITY           SKY/WX    TMP DP  RH WIND       PRES   REMARKS
WAUSAU         CLOUDY    30  23  75 SE8       29.77S WCI  22
MOSINEE        MOCLDY    30  25  80 S9        29.79S WCI  22
MARSHFIELD     MOCLDY    32  25  75 S13       29.75S WCI  22
STEVENS POINT  FAIR      30  24  77 SE6       29.81S WCI  24
WAUPACA        CLOUDY    37  28  69 S8        29.84S WCI  31
WAUTOMA        CLOUDY    34  27  75 SE7       29.84S WCI  28
WISC RAPIDS    FAIR      33  23  66 SE3       29.80F
CAMP DOUGLAS   FAIR      36  29  75 S14       29.77F WCI  27
$$

WIZ011>013-019>022-031-037>040-048>050-190400-
NORTHEAST WISCONSIN

CITY           SKY/WX    TMP DP  RH WIND       PRES   REMARKS
ANTIGO         MOCLDY    29  22  75 S14       29.79R WCI  18
SHAWANO        CLOUDY    35  26  69 S5        29.84S WCI  31
OCONTO         CLOUDY    33  26  74 S6        29.87R WCI  28
STURGEON BAY   CLOUDY    34  28  79 S18G24    29.88S WCI  23
GREEN BAY      CLOUDY    34  25  69 S5        29.87R WCI  30
MANITOWOC      CLOUDY    36  30  79 S14G28    29.90R WCI  27
APPLETON       CLOUDY    34  21  60 S8        29.84R WCI  27
CLINTONVILLE   CLOUDY    36  26  66 S12       29.84S WCI  28
OSHKOSH        CLOUDY    34  26  72 S13       29.86R WCI  25
$$

WIZ032>034-041-042-053>061-190400-
SOUTHWEST WISCONSIN

CITY           SKY/WX    TMP DP  RH WIND       PRES   REMARKS
LA CROSSE      FAIR      37  29  72 S8        29.75F WCI  31
SPARTA         FAIR      34  29  80 S5        29.78S WCI  30
VIROQUA        FAIR      35  31  87 S15       29.76S WCI  25
BOSCOBEL       FAIR      40  29  64 S6        29.81S
PRAIRIE DU CHI FAIR      39  28  65 SE5       29.79S
PLATTEVILLE    FAIR      38  32  78 S10       29.82S WCI  31
$$

WIZ056-057-062-063-064-067-068-190400-
SOUTH CENTRAL WISCONSIN

CITY           SKY/WX    TMP DP  RH WIND       PRES   REMARKS
REEDSBURG      MOCLDY    37  30  77 S13       29.81R WCI  28
BARABOO/DELLS  MOCLDY    34  29  82 S9        29.81S WCI  26
LONE ROCK      FAIR      37  31  78 E3        29.83S
MINERAL POINT  FAIR      36  34  93 SE10      29.81S WCI  28
MADISON        MOCLDY    38  31  76 S16G24    29.85S WCI  29
MIDDLETON      CLOUDY    38  32  78 S8        29.84S WCI  32
WATERTOWN      CLOUDY    37  31  78 S13G21    29.86R WCI  29
MONROE         CLOUDY    37  32  81 S15G23    29.84R WCI  28
JANESVILLE     PTCLDY    39  32  75 S12G21    29.84F WCI  32
$$

WIZ051-052-058>065-066-070>072-190400-
SOUTHEAST WISCONSIN

CITY           SKY/WX    TMP DP  RH WIND       PRES   REMARKS
MILWAUKEE      MOCLDY    36  31  82 S20G30    29.87F WCI  25
WAUKESHA       CLEAR     36  27  69 SE14      29.88S WCI  27
MILWAUKEE/TIMM CLEAR     36  27  69 S10G20    29.89F WCI  28
RACINE         FAIR      35  31  85 S15G28    29.90F WCI  25
BURLINGTON     FAIR      36  29  75 S7        29.87S WCI  31
KENOSHA        FAIR      36  29  75 S12       29.88F WCI  28
FOND DU LAC    CLOUDY    34  26  72 S12       29.86R WCI  25
SHEBOYGAN      MOCLDY    34  31  88 S22G32    29.88R WCI  22
WEST BEND      FAIR      34  30  86 S8G17     29.87R WCI  27
JUNEAU         CLOUDY    35  28  76 S9        29.87S WCI  27
$$

LSZ147-162-190400-
LAKE SUPERIOR

STATION/POSITION TIME  TEMP    WIND        PRES    WAVE
                       AIR SEA DIR/SP/G            HT/PER
                 (UTC) (F)     (DEG/KT/KT) (MB)    (FT/S)
DEVILS ISLAND    0300   24      30/ 24/ 27 1010.9R
SAXON HARBOR     0240   27      40/ 10/ 13 1007.8R
$$

LMZ867-665-643>646-190400-
LAKE MICHIGAN

STATION/POSITION TIME  TEMP    WIND        PRES    WAVE
                       AIR SEA DIR/SP/G            HT/PER
                 (UTC) (F)     (DEG/KT/KT) (MB)    (FT/S)
NORTHPORT PIER   0240   36                 1011.9S
KEWAUNEE LAKESHO 0248   35     190/ 19/ 24 1011.5R
SHEBOYGAN LAKESH 0300   35     190/ 29/ 32 1012.0R
PORT WASHINGTON  0248   35     180/ 22/ 25 1012.9F
MILWAUKEE LAKESH 0250   36     170/ 15/ 16   N/A
KENOSHA   LAKESH 0300   35     170/ 18/ 24 1012.2
$$

TC  - TEMPERATURE IN CELSIUS
VSB - VISIBILITY IN STATUTE MILES
WCI - WIND CHILL INDEX
HX  - HEAT INDEX





USA.gov is the U.S. government's official web portal to all federal, state and local government web resources and services.